Location: Bois de la Silve
(44.4667°N, 6.7833°E)
Time: 21:00:25
(UTC+00:00)

Cosmos 1356 - Pass Details

Date: 14 July 2020
Orbit: 443 x 447 km, 81.1° (Epoch: 14 August)

Event Time Altitude Azimuth Distance (km) Brightness Sun altitude
Exits shadow 02:04:53 25° 167° (SSE) 936 4.6 -16.0°
Maximum altitude 02:06:38 57° 97° (E) 534 3.8 -15.8°
Drops below altitude 10° 02:10:01 10° 19° (NNE) 1,583 7.4 -15.4°
Sets 02:12:07 0° 15° (NNE) 2,458 8.5 -15.2°
